[[{"header":{"parameterUnit":"m.s-1","parameterCategory":1,"la1":30.2991,"la2":30.254,"lo1":-89.0895,"lo2":-89.0444,"dy":0.0017,"dx":0.0017,"nx":28,"ny":28,"refTime":"2024-07-11T03:00:00:Z","depth":0,"parameterNumber":2,"parameterNumberName":"U-component_of_WINDS"},"data":[0,0,0,0,0,0,0,0,0,0,0,0,0,0,0,0,0,0,0,0,0,0,0,0,0,0,0,0,0,0,0,0,0,0,0,0,0,0,0,0,0,0,0,0,0,0,0,0,0,0,0,0,0,0,0,0,0,0,2.9476,2.9477,0,2.9568,2.9569,2.957,2.9519,2.9516,2.9514,2.9511,2.9608,2.9612,2.9617,0,0,0,0,0,0,0,0,0,0,0,0,0,2.9257,2.9261,2.9476,2.9477,2.9478,2.9567,2.9569,2.957,2.9519,2.9516,2.9513,2.951,2.9606,2.9612,2.9618,0,0,0,0,0,0,0,0,0,0,0,0,0,2.9351,2.9262,2.9476,2.9463,2.9463,2.9567,2.9569,2.957,2.952,2.9516,2.9512,2.9509,2.9604,2.9611,2.9618,2.974,0,0,2.9641,2.9644,0,0,0,0,0,0,0,0,2.9345,2.9359,2.9464,2.9465,2.9464,2.9528,2.9527,2.9627,2.9521,2.9498,2.9511,2.9507,2.9584,2.9593,2.9619,2.9745,2.9749,2.9642,2.9646,2.9649,2.9651,0,0,0,0,0,0,0,2.9339,2.9354,2.9512,2.9466,2.9466,2.9453,2.9463,2.9545,2.9562,2.95,2.9497,2.9508,2.9584,2.9612,2.9621,2.975,2.9641,2.9648,2.9653,2.9655,2.9978,2.9982,0,0,0,0,0,0,2.9333,2.9349,2.9509,2.9515,2.9394,2.946,2.9471,2.9511,2.9561,2.9564,2.9511,2.9505,2.9601,2.9612,2.9624,2.9767,2.9649,2.9656,2.966,2.9974,2.9978,2.9983,0,0,0,0,0,0,2.9328,2.9348,2.9506,2.9431,2.945,2.9468,2.9514,2.9515,2.9543,2.9569,2.9572,2.9537,2.9598,2.9613,2.9711,2.977,2.966,2.9666,2.9969,2.9975,2.9981,3.0057,0,0,0,0,0,0,2.9322,2.9346,2.9393,2.9433,2.9454,2.9591,2.9518,2.952,2.9556,2.9549,2.9594,2.9598,2.9596,2.97,2.9718,2.9778,2.9672,2.9963,2.9971,2.9979,3.0049,3.0065,3.0079,0,0,0,0,0,2.9315,2.9412,2.9396,2.9415,2.9513,2.9595,2.9607,2.9604,2.9561,2.9607,2.9623,2.9596,2.9761,2.971,2.973,2.9794,2.996,2.9969,2.9978,3.0043,3.0062,3.0078,0,0,0,0,0,0,2.9381,2.9417,2.94,2.9513,2.9551,2.9586,2.9645,2.9625,2.9677,2.9668,2.9662,2.9672,2.9773,2.9793,2.9737,2.9912,2.9853,2.9867,2.9896,2.9914,2.9929,2.9921,2.9678,0,0,0,0,0,2.9409,2.9472,2.95,2.9597,2.9617,2.9628,2.9664,2.9657,2.9697,2.9713,2.9736,2.9776,2.9836,2.9876,2.9934,3.0052,3.006,3.0105,3.012,3.0131,3.0143,3.0205,3.0224,3.0013,3.0013,3.0013,0,0,2.9467,2.9494,2.9535,2.9611,2.964,2.9705,2.9642,2.9714,2.9762,2.9724,2.9817,2.9835,2.9879,2.9987,3.0035,3.0006,3.0203,3.0143,3.0153,3.0158,3.0216,3.0236,3.0254,3.002,3.0019,3.0018,0,0,2.9605,2.9633,2.9716,2.9745,2.9789,2.9795,2.9815,2.9853,2.9863,2.9955,2.9927,2.9984,3.0089,3.012,3.015,3.0297,3.0273,3.0316,3.0393,3.0452,3.0469,3.0484,3.0534,3.0553,3.0328,3.0328,3.0328,0,2.9672,2.9769,2.9761,2.9834,2.9868,2.9834,2.9917,2.9946,3.0007,3.0031,2.9998,3.0126,3.0154,3.0267,3.0302,3.0328,3.035,3.0311,3.0467,3.0482,3.0495,3.0544,3.0563,3.0333,3.0332,3.0332,3.0331,0,2.9848,2.9915,2.9976,3.0033,3.0074,3.0152,3.0155,3.0197,3.0186,3.0196,3.0289,3.032,3.0382,3.0408,3.04,3.052,3.05,3.0467,3.0408,3.052,3.0565,3.0584,3.034,3.0338,3.0337,3.0335,0,0,3.0033,3.0082,3.0105,3.0129,3.0173,3.0225,3.03,3.0359,3.0394,3.0437,3.0499,3.0587,3.0555,3.0589,3.0583,3.0636,3.0748,3.0596,3.0597,3.0622,3.088,3.0903,3.0925,3.0732,3.0735,3.0738,3.0875,0,3.0173,3.0304,3.0298,3.042,3.0481,3.0448,3.0514,3.0548,3.0558,3.0611,3.0622,3.0684,3.0639,3.0658,3.0709,3.0723,3.0799,3.0714,3.0789,3.0792,3.0778,3.0949,3.0975,3.1103,3.0893,3.0896,3.0898,0,3.0355,3.0401,3.0529,3.0561,3.0586,3.0645,3.0697,3.0748,3.0785,3.0788,3.0824,3.0809,3.0884,3.0823,3.0926,3.0868,3.0898,3.0909,3.0914,3.0921,3.0852,3.0959,3.1144,3.1163,3.0926,3.0924,3.0922,0,3.0475,3.0569,3.0657,3.0679,3.0719,3.0761,3.0779,3.0812,3.0847,3.0892,3.0914,3.0969,3.0998,3.104,3.104,3.0995,3.1143,3.1082,3.1147,3.1148,3.118,3.1178,3.1372,3.1202,3.1201,3.1201,3.1201,0,3.0632,3.0711,3.071,3.0765,3.0852,3.0843,3.093,3.0944,3.0973,3.1029,3.1005,3.1058,3.1054,3.1107,3.1107,3.1191,3.1205,3.121,3.1209,3.1211,3.1211,3.1231,3.1222,3.1206,3.1205,3.1204,3.1203,0,3.0781,3.0784,3.0877,3.0906,3.0915,3.0978,3.1003,3.1054,3.106,3.1131,3.1147,3.1158,3.122,3.1223,3.1294,3.1294,3.1395,3.1385,3.1383,3.138,3.1445,3.1438,3.1658,3.1685,3.1498,3.15,3.1502,0,3.0881,3.094,3.0975,3.1009,3.103,3.1087,3.1121,3.1115,3.1151,3.1196,3.1241,3.1299,3.1346,3.1445,3.146,3.1513,3.1503,3.1576,3.1511,3.1511,3.1502,3.1498,3.1504,3.1589,3.1591,3.1593,3.1594,0,3.1057,3.1054,3.1104,3.1154,3.1195,3.1234,3.1271,3.1301,3.1298,3.1341,3.1402,3.1438,3.1508,3.1566,3.1618,3.1637,3.1615,3.1614,3.1632,3.1635,3.163,3.1632,3.1416,3.1609,3.1608,3.1607,3.1606,3.1605,3.1183,3.1233,3.1264,3.132,3.1346,3.138,3.1428,3.144,3.149,3.1546,3.1539,3.1607,3.164,3.1706,3.1729,3.1782,3.1757,3.1783,3.1789,3.1796,3.1802,3.1622,3.1791,3.1791,3.1791,3.179,3.179,0,3.1356,3.1374,3.1425,3.1475,3.1519,3.1492,3.153,3.1568,3.1628,3.166,3.1705,3.1774,3.1829,3.1847,3.19,3.1938,3.1929,3.1952,3.1949,3.1953,3.1822,3.18,3.1958,3.1958,3.1958,3.1958,3.1958,3.1958,3.1452,3.1534,3.1535,3.163,3.1647,3.1712,3.1735,3.1766,3.1791,3.1869,3.1913,3.1924,3.195,3.2004,3.2053,3.2056,3.2077,3.2104,3.2103,3.198,3.1963,3.1947,3.1927,3.2109,3.2109,3.223,3.2231,3.2232]},{"header":{"parameterUnit":"m.s-1","parameterCategory":1,"la1":30.2991,"la2":30.254,"lo1":-89.0895,"lo2":-89.0444,"dy":0.0017,"dx":0.0017,"nx":28,"ny":28,"refTime":"2024-07-11T03:00:00:Z","depth":0,"parameterNumber":3,"parameterNumberName":"V-component_of_WINDS"},"data":[0,0,0,0,0,0,0,0,0,0,0,0,0,0,0,0,0,0,0,0,0,0,0,0,0,0,0,0,0,0,0,0,0,0,0,0,0,0,0,0,0,0,0,0,0,0,0,0,0,0,0,0,0,0,0,0,0,0,0.4907,0.4906,0,0.4858,0.4858,0.4857,0.4804,0.4803,0.4802,0.4801,0.4752,0.4751,0.4751,0,0,0,0,0,0,0,0,0,0,0,0,0,0.4951,0.495,0.4907,0.4906,0.4905,0.4858,0.4858,0.4857,0.4804,0.4803,0.4802,0.4801,0.4752,0.4751,0.4751,0,0,0,0,0,0,0,0,0,0,0,0,0,0.492,0.495,0.4907,0.4873,0.487,0.4859,0.4858,0.4857,0.4804,0.4803,0.4801,0.48,0.4752,0.4751,0.475,0.4769,0,0,0.4748,0.4747,0,0,0,0,0,0,0,0,0.4922,0.4919,0.4879,0.4875,0.4871,0.4836,0.4855,0.4827,0.4804,0.4829,0.4801,0.48,0.4781,0.4777,0.4771,0.4766,0.4764,0.4748,0.4747,0.4747,0.4747,0,0,0,0,0,0,0,0.4924,0.492,0.4887,0.4878,0.4874,0.486,0.4854,0.485,0.4812,0.4827,0.4823,0.4818,0.4778,0.4772,0.4769,0.4764,0.4748,0.4747,0.4746,0.4746,0.4769,0.477,0,0,0,0,0,0,0.4931,0.4922,0.4889,0.4886,0.4894,0.486,0.4854,0.4848,0.4812,0.4805,0.4819,0.4815,0.4774,0.477,0.4767,0.4785,0.4747,0.4746,0.4746,0.4768,0.4769,0.477,0,0,0,0,0,0,0.4933,0.4929,0.4891,0.4903,0.4897,0.4861,0.4855,0.4848,0.4841,0.4806,0.4799,0.4819,0.4773,0.4769,0.4768,0.4782,0.4746,0.4745,0.4766,0.4768,0.477,0.4821,0,0,0,0,0,0,0.4934,0.493,0.4937,0.4904,0.4897,0.4893,0.4856,0.4848,0.484,0.4835,0.4804,0.4798,0.4772,0.477,0.4767,0.4781,0.4744,0.4765,0.4767,0.4769,0.4818,0.4824,0.483,0,0,0,0,0,0.4936,0.4954,0.4938,0.4934,0.4905,0.4894,0.489,0.486,0.4842,0.4848,0.4824,0.4799,0.4781,0.477,0.4767,0.478,0.4764,0.4767,0.4769,0.4815,0.4823,0.4829,0,0,0,0,0,0,0.499,0.4949,0.493,0.4938,0.492,0.4885,0.4893,0.4869,0.4856,0.4852,0.4814,0.4808,0.4811,0.4796,0.4784,0.4794,0.4769,0.4771,0.4805,0.4812,0.4818,0.4821,0.4743,0,0,0,0,0,0.5003,0.4998,0.4962,0.4972,0.4964,0.493,0.4924,0.4902,0.4882,0.4874,0.4851,0.4832,0.4821,0.4816,0.4805,0.4815,0.4806,0.4822,0.4828,0.4833,0.4835,0.4837,0.4843,0.4779,0.4779,0.4779,0,0,0.5029,0.5006,0.5005,0.4982,0.4966,0.4961,0.4924,0.4921,0.4916,0.4873,0.4871,0.4853,0.483,0.4834,0.4835,0.4821,0.4851,0.4836,0.4841,0.484,0.4841,0.4847,0.4852,0.478,0.478,0.478,0,0,0.5075,0.5057,0.5063,0.5047,0.5022,0.4999,0.5,0.4968,0.4955,0.4952,0.4919,0.4912,0.4897,0.488,0.487,0.4907,0.4882,0.4904,0.4935,0.4938,0.4943,0.4947,0.4959,0.4964,0.4907,0.4907,0.4907,0,0.5111,0.5102,0.5069,0.5067,0.5057,0.5017,0.5022,0.5008,0.4981,0.4975,0.4959,0.4937,0.4918,0.4917,0.4926,0.4919,0.4919,0.4908,0.4945,0.4949,0.4952,0.4963,0.4968,0.491,0.4909,0.4909,0.4909,0,0.5147,0.5142,0.5149,0.5123,0.5114,0.5116,0.5082,0.5077,0.5054,0.5033,0.5029,0.5005,0.4987,0.4985,0.4964,0.4981,0.4973,0.4952,0.4925,0.4962,0.4971,0.4975,0.4914,0.4913,0.4912,0.4911,0,0,0.5226,0.5181,0.5184,0.5171,0.5139,0.5134,0.5133,0.5116,0.5111,0.5093,0.5091,0.5077,0.5056,0.5045,0.5021,0.5024,0.5052,0.5002,0.5,0.5011,0.5067,0.5083,0.5089,0.5036,0.5036,0.5037,0.5069,0,0.5266,0.5262,0.5231,0.5236,0.5229,0.519,0.5189,0.5169,0.5148,0.5139,0.5116,0.5106,0.5081,0.5073,0.5074,0.5049,0.5063,0.5046,0.5032,0.5032,0.5039,0.5094,0.5111,0.5142,0.5073,0.5073,0.5074,0,0.5311,0.5295,0.53,0.5266,0.5263,0.5262,0.5242,0.5235,0.5211,0.5195,0.5181,0.5154,0.5149,0.5124,0.5116,0.5106,0.5098,0.5084,0.5085,0.5082,0.5055,0.5092,0.5152,0.5156,0.5079,0.5079,0.5079,0,0.5367,0.5347,0.5346,0.5336,0.5298,0.5298,0.5282,0.5257,0.5248,0.523,0.5224,0.5206,0.5196,0.5183,0.5151,0.5136,0.5146,0.5119,0.5132,0.5133,0.5136,0.5137,0.5195,0.5132,0.5132,0.5132,0.5132,0,0.5414,0.5418,0.5371,0.537,0.5373,0.5336,0.534,0.532,0.5297,0.5291,0.5256,0.5252,0.521,0.52,0.5175,0.5172,0.5168,0.5154,0.5147,0.5157,0.5159,0.5151,0.5148,0.5133,0.5133,0.5133,0.5133,0,0.5477,0.5446,0.5442,0.5406,0.5397,0.54,0.5368,0.5366,0.5342,0.5335,0.5331,0.5294,0.528,0.5247,0.5225,0.5208,0.521,0.5198,0.5218,0.5214,0.5229,0.5227,0.5284,0.5289,0.5224,0.5225,0.5226,0,0.5509,0.5511,0.5474,0.5468,0.5453,0.5443,0.5433,0.5397,0.5388,0.5359,0.536,0.5343,0.5328,0.5308,0.5278,0.526,0.5247,0.5268,0.5244,0.5253,0.5246,0.5246,0.5245,0.5273,0.5274,0.5275,0.5275,0,0.5568,0.5552,0.5539,0.5521,0.551,0.5493,0.5475,0.5472,0.543,0.5422,0.5407,0.5395,0.5371,0.5355,0.5332,0.5314,0.5287,0.5283,0.5285,0.5295,0.5306,0.5299,0.5232,0.5282,0.5281,0.5281,0.5281,0.528,0.5616,0.5615,0.5589,0.5575,0.5557,0.554,0.5536,0.5511,0.5498,0.5476,0.5455,0.5442,0.5416,0.5382,0.5366,0.5354,0.5341,0.5344,0.5345,0.5346,0.535,0.5308,0.535,0.535,0.535,0.535,0.5349,0,0.5672,0.5653,0.5641,0.5616,0.5605,0.558,0.5558,0.555,0.5539,0.5517,0.5503,0.5485,0.5468,0.5436,0.5416,0.5413,0.54,0.5409,0.5408,0.5404,0.5363,0.5363,0.5419,0.5419,0.5419,0.5419,0.5419,0.5419,0.57,0.5697,0.5678,0.5664,0.5645,0.5632,0.5621,0.5605,0.5587,0.5568,0.5554,0.5534,0.5507,0.5485,0.5467,0.5458,0.5452,0.5465,0.5452,0.5414,0.5408,0.5401,0.5401,0.5464,0.5464,0.5493,0.5494,0.5494]}]]